Weather History for KDUX - April, 2013

Change the Weather History Date:

Sunday, April 28, 2013

  Actual Average (KBGD) Record (KBGD)
Temperature  
Mean Temperature 68 °F 62 °F  
Max Temperature 85 °F 76 °F 89 °F (2010)
Min Temperature 50 °F 49 °F 30 °F (1994)
Degree Days  
Heating Degree Days 0 5  
Month to date heating degree days 218  
Since 1 July heating degree days 3695  
Cooling Degree Days 2 2  
Month to date cooling degree days 33  
Year to date cooling degree days 40  
Growing Degree Days 18 (Base 50)    
Moisture  
Dew Point 26 °F    
Average Humidity 23    
Maximum Humidity 44    
Minimum Humidity 7    
Precipitation  
Precipitation 0.00 in 0.03 in 2.41 in (1957)
Month to date precipitation 1.46  
Year to date precipitation 4.08  
Snow  
Snow 0.00 in - 0.50 in (1994)
Month to date snowfall  
Since 1 July snowfall  
Snow Depth -    
Sea Level Pressure  
Sea Level Pressure 29.94 in    
Wind  
Wind Speed 13 mph (SW)    
Max Wind Speed 31 mph    
Max Gust Speed 33 mph    
Visibility 10 miles    
Events      
T = Trace of Precipitation, MM = Missing Value Source: NWS Daily Summary

Daily Weather History Graph

Daily Weather History Graph

Search for Another Location

Airport or City:

Trip Planner

Search our weather history database for the weather conditions in past years. The results will help you decide how hot, cold, wet, or windy it might be!

Date:

Astronomy

Apr. 28, 2013 Rise Set
Actual Time 6:58 AM CDT 8:32 PM CDT
Civil Twilight 6:31 AM CDT 9:00 PM CDT
Nautical Twilight 5:58 AM CDT 9:32 PM CDT
Astronomical Twilight 5:24 AM CDT 10:07 PM CDT
Moon No Moon Rise 9:21 AM CDT (4/28)
Length of Visible Light 14h 28m
Length of Day
13h 34m
Waning Gibbous, 88% of the Moon is Illuminated
Apr 28
Waning Gibbous
May 2
Last Quarter
May 9
New
May 17
First Quarter
May 24
Full

Hourly Weather History & Observations

Time (CDT) Temp. Dew Point Humidity Pressure Visibility Wind Dir Wind Speed Gust Speed Precip Events Conditions
12:15 AM 55.9 °F 27.5 °F 34% 30.02 in 10.0 mi South 9.2 mph - N/A   Clear
12:35 AM 56.5 °F 27.5 °F 33% 30.03 in 10.0 mi South 11.5 mph - N/A   Clear
12:55 AM 61.0 °F 28.0 °F 29% 30.03 in 10.0 mi South 18.4 mph - N/A   Clear
1:15 AM 59.0 °F 27.7 °F 30% 30.02 in 10.0 mi South 15.0 mph - N/A   Clear
1:35 AM 57.9 °F 28.0 °F 32% 30.02 in 10.0 mi South 13.8 mph - N/A   Clear
1:55 AM 56.5 °F 27.5 °F 33% 30.02 in 10.0 mi South 10.4 mph - N/A   Clear
2:15 AM 52.9 °F 27.7 °F 38% 30.02 in 10.0 mi South 9.2 mph - N/A   Clear
2:35 AM 55.8 °F 28.4 °F 35% 30.02 in 10.0 mi South 13.8 mph - N/A   Clear
2:55 AM 57.7 °F 28.9 °F 33% 30.01 in 10.0 mi SSW 18.4 mph - N/A   Clear
3:15 AM 55.4 °F 28.4 °F 36% 30.01 in 10.0 mi South 12.7 mph - N/A   Clear
3:35 AM 56.1 °F 29.5 °F 36% 30.01 in 10.0 mi SSW 17.3 mph - N/A   Clear
3:55 AM 56.7 °F 29.7 °F 36% 30.00 in 10.0 mi SSW 18.4 mph - N/A   Clear
4:15 AM 57.0 °F 29.5 °F 35% 30.01 in 10.0 mi SSW 16.1 mph - N/A   Clear
4:35 AM 55.8 °F 30.0 °F 37% 30.01 in 10.0 mi SSW 18.4 mph - N/A   Clear
4:55 AM 56.8 °F 30.4 °F 37% 30.01 in 10.0 mi SSW 17.3 mph - N/A   Clear
5:15 AM 56.7 °F 29.8 °F 36% 30.02 in 10.0 mi SW 16.1 mph - N/A   Clear
5:35 AM 56.3 °F 30.0 °F 37% 30.02 in 10.0 mi SSW 15.0 mph - N/A   Clear
6:15 AM 55.2 °F 29.5 °F 37% 30.02 in 10.0 mi SW 18.4 mph - N/A   Clear
6:35 AM 56.1 °F 29.7 °F 36% 30.03 in 10.0 mi SW 15.0 mph - N/A   Clear
6:55 AM 51.8 °F 28.9 °F 41% 30.04 in 10.0 mi SW 11.5 mph - N/A   Clear
7:15 AM 50.4 °F 29.1 °F 44% 30.04 in 10.0 mi SW 11.5 mph - N/A   Clear
7:35 AM 53.6 °F 29.7 °F 40% 30.04 in 10.0 mi SW 12.7 mph - N/A   Clear
8:15 AM 59.5 °F 33.3 °F 37% 30.04 in 10.0 mi SSW 10.4 mph - N/A   Clear
8:35 AM 62.2 °F 33.8 °F 35% 30.04 in 10.0 mi SW 11.5 mph - N/A   Clear
8:55 AM 63.5 °F 33.8 °F 33% 30.03 in 10.0 mi SW 16.1 mph - N/A   Clear
9:15 AM 66.2 °F 32.9 °F 29% 30.02 in 10.0 mi SW 23.0 mph - N/A   Clear
9:35 AM 68.2 °F 33.3 °F 27% 30.02 in 10.0 mi WSW 25.3 mph 33.4 mph N/A   Clear
9:55 AM 69.6 °F 34.3 °F 27% 30.02 in 10.0 mi SW 26.5 mph - N/A   Clear
10:15 AM 70.0 °F 35.8 °F 29% 30.01 in 10.0 mi SW 31.1 mph - N/A   Clear
10:35 AM 70.7 °F 37.4 °F 30% 30.01 in 10.0 mi WSW 26.5 mph 32.2 mph N/A   Clear
10:55 AM 71.8 °F 36.3 °F 27% 30.00 in 10.0 mi SW 24.2 mph 29.9 mph N/A   Clear
11:15 AM 73.9 °F 37.0 °F 26% 30.00 in 10.0 mi WSW 21.9 mph 27.6 mph N/A   Clear
11:35 AM 75.2 °F 37.4 °F 25% 30.00 in 10.0 mi SW 20.7 mph 26.5 mph N/A   Clear
11:55 AM 76.3 °F 36.7 °F 24% 29.99 in 10.0 mi WSW 20.7 mph 26.5 mph N/A   Clear
12:15 PM 78.1 °F 34.0 °F 20% 29.98 in 10.0 mi WSW 16.1 mph 23.0 mph N/A   Clear
12:35 PM 79.2 °F 34.5 °F 20% 29.98 in 10.0 mi WSW 16.1 mph 20.7 mph N/A   Clear
12:55 PM 80.1 °F 31.5 °F 17% 29.97 in 10.0 mi SW 12.7 mph - N/A   Clear
1:15 PM 80.4 °F 28.8 °F 15% 29.96 in 10.0 mi SW 13.8 mph 18.4 mph N/A   Clear
1:55 PM 82.0 °F 23.7 °F 12% 29.94 in 10.0 mi SW 8.1 mph 18.4 mph N/A   Clear
2:15 PM 84.0 °F 25.3 °F 12% 29.93 in 10.0 mi South 13.8 mph 20.7 mph N/A   Clear
2:35 PM 82.0 °F 22.5 °F 11% 29.92 in 10.0 mi WSW 3.5 mph 11.5 mph N/A   Clear
2:55 PM 82.8 °F 23.4 °F 11% 29.91 in 10.0 mi SSW 3.5 mph 19.6 mph N/A   Clear
3:15 PM 83.5 °F 22.6 °F 11% 29.91 in 10.0 mi SSW 5.8 mph 23.0 mph N/A   Clear
3:35 PM 84.7 °F 22.1 °F 10% 29.90 in 10.0 mi West 11.5 mph 19.6 mph N/A   Clear
3:55 PM 84.2 °F 19.2 °F 9% 29.89 in 10.0 mi WSW 16.1 mph 23.0 mph N/A   Clear
4:15 PM 84.9 °F 18.9 °F 9% 29.88 in 10.0 mi West 13.8 mph 24.2 mph N/A   Clear
4:35 PM 85.3 °F 17.4 °F 8% 29.86 in 10.0 mi SW 6.9 mph 10.4 mph N/A   Clear
4:55 PM 85.3 °F 16.7 °F 8% 29.86 in 10.0 mi WSW 11.5 mph 16.1 mph N/A   Clear
5:15 PM 84.6 °F 16.5 °F 8% 29.86 in 10.0 mi WSW 10.4 mph 16.1 mph N/A   Clear
5:35 PM 84.0 °F 15.4 °F 8% 29.85 in 10.0 mi SW 9.2 mph - N/A   Clear
5:55 PM 84.7 °F 15.1 °F 7% 29.85 in 10.0 mi SW 13.8 mph 18.4 mph N/A   Clear
6:15 PM 84.2 °F 14.0 °F 7% 29.84 in 10.0 mi SW 3.5 mph - N/A   Clear
6:35 PM 83.8 °F 15.1 °F 8% 29.84 in 10.0 mi West 8.1 mph - N/A   Clear
6:55 PM 83.3 °F 15.8 °F 8% 29.83 in 10.0 mi WSW 5.8 mph - N/A   Clear
7:15 PM 83.3 °F 14.5 °F 8% 29.83 in 10.0 mi WSW 8.1 mph - N/A   Clear
7:35 PM 82.4 °F 14.5 °F 8% 29.83 in 10.0 mi WSW 5.8 mph - N/A   Clear
7:55 PM 80.6 °F 15.6 °F 9% 29.83 in 10.0 mi SW 3.5 mph - N/A   Clear
8:15 PM 78.4 °F 15.8 °F 9% 29.83 in 10.0 mi SW 4.6 mph - N/A   Clear
8:35 PM 75.9 °F 19.2 °F 12% 29.83 in 10.0 mi SSW 3.5 mph - N/A   Clear
8:55 PM 73.4 °F 20.7 °F 14% 29.84 in 10.0 mi SSE 5.8 mph - N/A   Clear
9:15 PM 72.3 °F 17.8 °F 13% 29.84 in 10.0 mi SSE 5.8 mph - N/A   Clear
9:35 PM 66.9 °F 20.1 °F 17% 29.84 in 10.0 mi South 6.9 mph - N/A   Clear
9:55 PM 61.9 °F 18.9 °F 19% 29.84 in 10.0 mi SSE 8.1 mph - N/A   Clear
10:15 PM 62.2 °F 22.3 °F 22% 29.84 in 10.0 mi SSE 6.9 mph - N/A   Clear
10:35 PM 61.5 °F 21.2 °F 21% 29.84 in 10.0 mi SSE 9.2 mph - N/A   Clear
10:55 PM 56.7 °F 22.6 °F 27% 29.84 in 10.0 mi South 9.2 mph - N/A   Clear
11:15 PM 55.8 °F 23.9 °F 29% 29.84 in 10.0 mi South 9.2 mph - N/A   Clear
11:35 PM 55.2 °F 24.1 °F 30% 29.83 in 10.0 mi South 12.7 mph - N/A   Clear
11:55 PM 57.6 °F 25.3 °F 29% 29.83 in 10.0 mi South 10.4 mph - N/A   Clear